When you browse on this site, cookies collect data to enhance your experience and personalize the content and advertising you see.
Visit our Privacy Policy to learn more. By continuing to use the site, you agree to this use of cookies and data.
  • In Österreich
  • Länderverzeichnis
  • Für 7 Tage
  • Wassertemperatur
  • Satellitenkarten
  • Wetterkarte
  • News
  • Widgets
  • user-avatar
    Anmelden

    Stündliche Wetter Soma Bey

    Heute, 20 Januar, Sonntag

    Zeit Temperatur Niederschläge Wind Luftdruck Luftfeuchtigkeit
    00:00 +15°C° 0 mm 2 m/S 753 mmHg 47%
    01:00 +15°C° 0 mm 2 m/S 753 mmHg 47%
    02:00 +14°C° 0 mm 2 m/S 752 mmHg 48%
    03:00 +14°C° 0 mm 2 m/S 752 mmHg 47%
    04:00 +14°C° 0 mm 2 m/S 752 mmHg 46%
    05:00 +13°C° 0 mm 2 m/S 752 mmHg 45%
    06:00 +15°C° 0 mm 2 m/S 752 mmHg 40%
    07:00 +16°C° 0 mm 1 m/S 753 mmHg 35%
    08:00 +19°C° 0 mm 2 m/S 753 mmHg 30%
    09:00 +20°C° 0 mm 2 m/S 753 mmHg 29%
    10:00 +21°C° 0 mm 2 m/S 753 mmHg 28%
    11:00 +23°C° 0 mm 2 m/S 753 mmHg 26%
    12:00 +24°C° 0 mm 2 m/S 752 mmHg 26%
    13:00 +24°C° 0 mm 3 m/S 752 mmHg 26%
    14:00 +25°C° 0 mm 3 m/S 751 mmHg 26%
    15:00 +24°C° 0 mm 3 m/S 751 mmHg 31%
    16:00 +23°C° 0 mm 2 m/S 751 mmHg 35%
    17:00 +23°C° 0 mm 2 m/S 751 mmHg 39%
    18:00 +21°C° 0 mm 1 m/S 751 mmHg 44%
    19:00 +20°C° 0 mm 1 m/S 751 mmHg 48%
    20:00 +17°C° 0 mm 0 m/S 752 mmHg 53%
    21:00 +17°C° 0 mm 0 m/S 752 mmHg 54%
    22:00 +16°C° 0 mm 0 m/S 752 mmHg 56%
    23:00 +16°C° 0 mm 0 m/S 752 mmHg 57%

    Morgen, 21 Januar, Montag

    Zeit Temperatur Niederschläge Wind Luftdruck Luftfeuchtigkeit
    00:00 +15°C° 0 mm 0 m/S 752 mmHg 58%
    01:00 +16°C° 0 mm 1 m/S 752 mmHg 58%
    02:00 +16°C° 0 mm 1 m/S 752 mmHg 59%
    03:00 +15°C° 0 mm 1 m/S 751 mmHg 61%
    04:00 +14°C° 0 mm 0 m/S 751 mmHg 63%
    05:00 +14°C° 0 mm 0 m/S 751 mmHg 66%
    06:00 +15°C° 0 mm 0 m/S 751 mmHg 58%
    07:00 +17°C° 0 mm 0 m/S 752 mmHg 51%
    08:00 +18°C° 0 mm 0 m/S 752 mmHg 44%
    09:00 +20°C° 0 mm 0 m/S 752 mmHg 38%
    10:00 +24°C° 0 mm 1 m/S 752 mmHg 32%
    11:00 +25°C° 0 mm 1 m/S 752 mmHg 26%
    12:00 +26°C° 0 mm 1 m/S 751 mmHg 25%
    13:00 +27°C° 0 mm 2 m/S 751 mmHg 24%
    14:00 +27°C° 0 mm 3 m/S 750 mmHg 22%
    15:00 +26°C° 0 mm 2 m/S 750 mmHg 26%
    16:00 +25°C° 0 mm 2 m/S 750 mmHg 29%
    17:00 +24°C° 0 mm 2 m/S 750 mmHg 33%
    18:00 +23°C° 0 mm 1 m/S 750 mmHg 37%
    19:00 +22°C° 0 mm 1 m/S 751 mmHg 42%
    20:00 +21°C° 0 mm 1 m/S 751 mmHg 46%
    21:00 +20°C° 0 mm 1 m/S 751 mmHg 46%
    22:00 +20°C° 0 mm 1 m/S 751 mmHg 46%
    23:00 +20°C° 0 mm 1 m/S 751 mmHg 47%

    übermorgen, 22 Januar, Dienstag

    Zeit Temperatur Niederschläge Wind Luftdruck Luftfeuchtigkeit
    00:00 +19°C° 0 mm 1 m/S 751 mmHg 45%
    01:00 +19°C° 0 mm 1 m/S 751 mmHg 43%
    02:00 +18°C° 0 mm 1 m/S 751 mmHg 41%
    03:00 +18°C° 0 mm 1 m/S 750 mmHg 38%
    04:00 +18°C° 0 mm 1 m/S 750 mmHg 36%
    05:00 +16°C° 0 mm 1 m/S 750 mmHg 34%
    06:00 +19°C° 0 mm 1 m/S 750 mmHg 30%
    07:00 +18°C° 0 mm 0 m/S 751 mmHg 26%
    08:00 +20°C° 0 mm 0 m/S 751 mmHg 22%
    09:00 +24°C° 0 mm 1 m/S 751 mmHg 20%
    10:00 +25°C° 0 mm 1 m/S 751 mmHg 18%
    11:00 +27°C° 0 mm 1 m/S 751 mmHg 17%
    12:00 +27°C° 0 mm 2 m/S 751 mmHg 19%
    13:00 +28°C° 0 mm 3 m/S 750 mmHg 20%
    14:00 +28°C° 0 mm 3 m/S 750 mmHg 22%
    15:00 +27°C° 0 mm 3 m/S 750 mmHg 27%
    16:00 +26°C° 0 mm 3 m/S 749 mmHg 33%
    17:00 +24°C° 0 mm 2 m/S 749 mmHg 38%
    18:00 +23°C° 0 mm 2 m/S 750 mmHg 45%
    19:00 +21°C° 0 mm 1 m/S 750 mmHg 51%
    20:00 +18°C° 0 mm 0 m/S 751 mmHg 58%
    21:00 +17°C° 0 mm 0 m/S 751 mmHg 61%
    22:00 +17°C° 0 mm 0 m/S 751 mmHg 64%
    23:00 +16°C° 0 mm 0 m/S 751 mmHg 66%

    23 Januar, Mittwoch

    Zeit Temperatur Niederschläge Wind Luftdruck Luftfeuchtigkeit
    00:00 +18°C° 0 mm 1 m/S 750 mmHg 65%
    01:00 +16°C° 0 mm 1 m/S 750 mmHg 63%
    02:00 +16°C° 0 mm 2 m/S 750 mmHg 61%
    03:00 +16°C° 0 mm 2 m/S 750 mmHg 59%
    04:00 +16°C° 0 mm 2 m/S 750 mmHg 58%
    05:00 +15°C° 0 mm 2 m/S 750 mmHg 56%
    06:00 +17°C° 0 mm 2 m/S 750 mmHg 50%
    07:00 +18°C° 0 mm 2 m/S 750 mmHg 43%
    08:00 +20°C° 0 mm 2 m/S 751 mmHg 37%
    09:00 +21°C° 0 mm 2 m/S 751 mmHg 33%
    10:00 +23°C° 0 mm 2 m/S 751 mmHg 29%
    11:00 +25°C° 0 mm 2 m/S 751 mmHg 26%
    12:00 +25°C° 0 mm 2 m/S 750 mmHg 26%
    13:00 +26°C° 0 mm 3 m/S 749 mmHg 26%
    14:00 +26°C° 0 mm 3 m/S 748 mmHg 27%
    15:00 +25°C° 0 mm 3 m/S 748 mmHg 32%
    16:00 +24°C° 0 mm 3 m/S 748 mmHg 37%
    17:00 +23°C° 0 mm 2 m/S 748 mmHg 42%
    18:00 +21°C° 0 mm 2 m/S 748 mmHg 49%
    19:00 +21°C° 0 mm 1 m/S 749 mmHg 56%
    20:00 +19°C° 0 mm 1 m/S 749 mmHg 64%
    21:00 +19°C° 0 mm 1 m/S 749 mmHg 65%
    22:00 +18°C° 0 mm 1 m/S 749 mmHg 66%
    23:00 +18°C° 0 mm 1 m/S 749 mmHg 67%

    24 Januar, Donnerstag

    Zeit Temperatur Niederschläge Wind Luftdruck Luftfeuchtigkeit
    00:00 +18°C° 0 mm 1 m/S 749 mmHg 69%
    01:00 +18°C° 0 mm 1 m/S 748 mmHg 71%
    02:00 +16°C° 0 mm 1 m/S 748 mmHg 73%
    03:00 +16°C° 0 mm 1 m/S 748 mmHg 73%
    04:00 +16°C° 0 mm 1 m/S 748 mmHg 74%
    05:00 +16°C° 0 mm 2 m/S 748 mmHg 74%
    06:00 +18°C° 0 mm 2 m/S 748 mmHg 71%
    07:00 +19°C° 0 mm 3 m/S 748 mmHg 67%
    08:00 +20°C° 0 mm 3 m/S 748 mmHg 64%
    09:00 +22°C° 0 mm 3 m/S 748 mmHg 56%
    10:00 +25°C° 0 mm 4 m/S 748 mmHg 49%
    11:00 +27°C° 0 mm 4 m/S 748 mmHg 41%
    12:00 +29°C° 0 mm 4 m/S 748 mmHg 36%
    13:00 +30°C° 0 mm 5 m/S 747 mmHg 30%
    14:00 +33°C° 0 mm 6 m/S 747 mmHg 25%
    15:00 +30°C° 0 mm 5 m/S 747 mmHg 29%
    16:00 +29°C° 0 mm 5 m/S 747 mmHg 33%
    17:00 +28°C° 0 mm 4 m/S 747 mmHg 37%
    18:00 +27°C° 0 mm 4 m/S 747 mmHg 40%
    19:00 +25°C° 0 mm 3 m/S 748 mmHg 43%
    20:00 +24°C° 0 mm 3 m/S 748 mmHg 47%
    21:00 +22°C° 0 mm 3 m/S 748 mmHg 42%
    22:00 +23°C° 0 mm 2 m/S 748 mmHg 37%
    23:00 +21°C° 0 mm 2 m/S 748 mmHg 32%

    25 Januar, Freitag

    Zeit Temperatur Niederschläge Wind Luftdruck Luftfeuchtigkeit
    00:00 +21°C° 0 mm 2 m/S 748 mmHg 29%
    01:00 +21°C° 0 mm 1 m/S 748 mmHg 25%
    02:00 +21°C° 0 mm 1 m/S 748 mmHg 21%
    03:00 +21°C° 0 mm 1 m/S 748 mmHg 25%
    04:00 +21°C° 0 mm 1 m/S 748 mmHg 29%
    05:00 +19°C° 0 mm 2 m/S 748 mmHg 33%
    06:00 +20°C° 0 mm 2 m/S 748 mmHg 39%
    07:00 +23°C° 0 mm 2 m/S 749 mmHg 45%
    08:00 +24°C° 0 mm 2 m/S 749 mmHg 50%
    09:00 +25°C° 0 mm 2 m/S 749 mmHg 48%
    10:00 +26°C° 0 mm 2 m/S 749 mmHg 46%
    11:00 +27°C° 0 mm 2 m/S 749 mmHg 44%
    12:00 +28°C° 0 mm 2 m/S 749 mmHg 42%
    13:00 +28°C° 0 mm 2 m/S 748 mmHg 41%
    14:00 +29°C° 0 mm 2 m/S 748 mmHg 39%
    15:00 +28°C° 0 mm 2 m/S 748 mmHg 42%
    16:00 +27°C° 0 mm 2 m/S 748 mmHg 46%
    17:00 +27°C° 0 mm 2 m/S 748 mmHg 49%
    18:00 +26°C° 0 mm 1 m/S 748 mmHg 54%
    19:00 +25°C° 0 mm 1 m/S 748 mmHg 59%
    20:00 +24°C° 0 mm 1 m/S 749 mmHg 63%
    21:00 +21°C° 0 mm 0 m/S 749 mmHg 60%
    22:00 +21°C° 0 mm 0 m/S 749 mmHg 56%
    23:00 +21°C° 0 mm 0 m/S 749 mmHg 53%
    Mehr zeigen